TimeCDT,TemperatureF,Dew PointF,Humidity,Sea Level PressureIn,VisibilityMPH,Wind Direction,Wind SpeedMPH,Gust SpeedMPH,PrecipitationIn,Events,Conditions,WindDirDegrees,DateUTC
12:53 AM,69.1,59.0,70,30.09,10.0,North,9.2,-,N/A,,Clear,350,2013-05-12 05:53:00
1:53 AM,69.1,59.0,70,30.10,10.0,NNW,8.1,-,N/A,,Clear,340,2013-05-12 06:53:00
2:53 AM,69.1,57.0,65,30.07,10.0,North,10.4,-,N/A,,Clear,10,2013-05-12 07:53:00
4:53 AM,70.0,57.0,63,30.04,10.0,ENE,8.1,-,N/A,,Clear,60,2013-05-12 09:53:00
5:53 AM,69.1,57.9,68,30.09,10.0,North,8.1,-,N/A,,Overcast,10,2013-05-12 10:53:00
6:53 AM,66.9,57.9,73,30.11,10.0,NNE,8.1,-,N/A,,Clear,20,2013-05-12 11:53:00
7:53 AM,70.0,59.0,68,30.12,10.0,NNE,9.2,-,N/A,,Clear,30,2013-05-12 12:53:00
8:53 AM,73.0,61.0,66,30.14,10.0,NE,12.7,-,N/A,,Clear,40,2013-05-12 13:53:00
9:53 AM,77.0,64.0,64,30.14,10.0,NNE,13.8,-,N/A,,Partly Cloudy,30,2013-05-12 14:53:00
10:53 AM,80.1,64.0,58,30.15,10.0,NNE,13.8,-,N/A,,Clear,30,2013-05-12 15:53:00
11:53 AM,80.1,60.1,50,30.16,10.0,NNE,15.0,-,N/A,,Clear,30,2013-05-12 16:53:00
12:53 PM,79.0,60.1,52,30.17,10.0,NNE,13.8,-,N/A,,Clear,20,2013-05-12 17:53:00
1:53 PM,79.0,61.0,54,30.13,10.0,NE,11.5,-,N/A,,Partly Cloudy,40,2013-05-12 18:53:00
2:53 PM,79.0,59.0,50,30.12,10.0,NNE,11.5,-,N/A,,Partly Cloudy,20,2013-05-12 19:53:00
3:53 PM,82.0,57.9,44,30.11,10.0,NNE,11.5,-,N/A,,Partly Cloudy,20,2013-05-12 20:53:00
4:53 PM,82.0,53.1,37,30.11,10.0,ENE,15.0,20.7,N/A,,Clear,60,2013-05-12 21:53:00
5:53 PM,81.0,55.9,42,30.10,10.0,East,10.4,-,N/A,,Partly Cloudy,80,2013-05-12 22:53:00
6:53 PM,78.1,50.0,37,30.10,10.0,East,9.2,-,N/A,,Clear,100,2013-05-12 23:53:00
7:53 PM,75.0,52.0,44,30.11,10.0,ESE,10.4,-,N/A,,Clear,110,2013-05-13 00:53:00
8:53 PM,71.1,55.0,57,30.13,10.0,ESE,6.9,-,N/A,,Clear,120,2013-05-13 01:53:00
9:53 PM,69.1,57.9,68,30.16,10.0,ESE,6.9,-,N/A,,Clear,120,2013-05-13 02:53:00
10:53 PM,69.1,60.1,73,30.17,10.0,East,4.6,-,N/A,,Clear,100,2013-05-13 03:53:00
11:53 PM,69.1,61.0,75,30.17,10.0,East,3.5,-,N/A,,Clear,90,2013-05-13 04:53:00